Weather History for Ras Al Khaimah, United Arab Emirates

Change the Weather History Date:

Friday, January 18, 2013

  Actual Average Record
Temperature  
Mean Temperature 56 °F -  
Max Temperature 72 °F 76 °F 84 °F (1999)
Min Temperature 41 °F 55 °F 41 °F (2013)
Degree Days  
Heating Degree Days 8    
Growing Degree Days 6 (Base 50)    
Moisture  
Dew Point 36 °F    
Average Humidity 43    
Maximum Humidity 64    
Minimum Humidity 15    
Precipitation  
Precipitation 0.00 in 0.03 in - ()
Sea Level Pressure  
Sea Level Pressure 30.17 in    
Wind  
Wind Speed 3 mph ()    
Max Wind Speed 8 mph    
Max Gust Speed -    
Visibility 6.0 miles    
Events      
Averages and records for this station are not official NWS values.
T = Trace of Precipitation, MM = Missing Value Source: Averaged Metar Reports

Daily Weather History Graph

Daily Weather History Graph

Search for Another Location

Airport:

Trip Planner

Search our weather history database for the weather conditions in past years. The results will help you decide how hot, cold, wet, or windy it might be!

Date:

Astronomy

Jan. 18, 2013 Rise Set
Actual Time 7:03 AM GST 5:49 PM GST
Civil Twilight 6:39 AM GST 6:14 PM GST
Nautical Twilight 6:11 AM GST 6:42 PM GST
Astronomical Twilight 5:43 AM GST 7:09 PM GST
Moon 11:16 AM GST (1/18) No Moon Set
Length of Visible Light 11h 34m
Length of Day
10h 45m
Waxing Crescent, 43% of the Moon is Illuminated
Jan 18
Waxing Crescent
Jan 19
First Quarter
Jan 27
Full
Feb 3
Last Quarter
Feb 10
New

Hourly Weather History & Observations

Time (GST) Temp. Windchill Dew Point Humidity Pressure Visibility Wind Dir Wind Speed Gust Speed Precip Events Conditions
12:00 AM 51.8 °F - 33.8 °F 50% 30.21 in - WSW 2.3 mph - N/A   Clear
1:00 AM 49 °F - 30 °F 35% 30.22 in 6 mi ESE 3.5 mph - -  
1:00 AM 48.2 °F - 30.2 °F 50% 30.21 in - ESE 3.5 mph - N/A   Clear
2:00 AM 48.2 °F - 28.4 °F 46% 30.18 in - SW 4.6 mph - N/A   Clear
3:00 AM 46.4 °F 45.2 °F 28.4 °F 50% 30.18 in - SW 3.5 mph - N/A   Clear
4:00 AM 46 °F - 28 °F 36% 30.18 in 6 mi SW 4.6 mph - -  
4:00 AM 46.4 °F 44.3 °F 28.4 °F 50% 30.15 in - SW 4.6 mph - N/A   Clear
5:00 AM 44.6 °F - 28.4 °F 53% 30.15 in - SW 2.3 mph - N/A   Clear
6:00 AM 42.8 °F 41.1 °F 28.4 °F 57% 30.15 in - SW 3.5 mph - N/A   Clear
7:00 AM 41.0 °F - 26.6 °F 57% 30.18 in - SSW 2.3 mph - N/A   Clear
8:00 AM 42.8 °F 41.1 °F 26.6 °F 53% 30.18 in - SW 3.5 mph - N/A   Clear
9:00 AM 50.0 °F - 30.2 °F 47% 30.18 in - SSW 2.3 mph - N/A   Clear
10:00 AM 64 °F - 32 °F 19% 30.22 in 6 mi SW 2.3 mph - -  
10:00 AM 64.4 °F - 32.0 °F 30% 30.21 in - SW 2.3 mph - N/A   Clear
11:00 AM 68.0 °F - 55.4 °F 64% 30.21 in - NNW 4.6 mph - N/A   Clear
12:00 PM 69.8 °F - 33.8 °F 27% 30.18 in - North 4.6 mph - N/A   Clear
1:00 PM 70 °F - 33 °F 15% 30.16 in 6 mi NW 6.9 mph - -  
1:00 PM 69.8 °F - 32.0 °F 25% 30.15 in - NW 6.9 mph - N/A   Clear
2:00 PM 71.6 °F - 33.8 °F 25% 30.12 in - NNW 6.9 mph - N/A   Clear
3:00 PM 71.6 °F - 35.6 °F 27% 30.12 in - NNW 6.9 mph - N/A   Clear
4:00 PM 70 °F - 42 °F 25% 30.11 in 6 mi NNW 8.1 mph - -  
4:00 PM 69.8 °F - 41.0 °F 35% 30.09 in - NNW 8.1 mph - N/A   Clear
5:00 PM 69.8 °F - 42.8 °F 38% 30.12 in - North 5.8 mph - N/A   Clear
6:00 PM 68.0 °F - 44.6 °F 43% 30.12 in - NW 4.6 mph - N/A   Clear
7:00 PM 65 °F - 47 °F 41% 30.17 in 6 mi NW 4.6 mph - -  
7:00 PM 66.2 °F - 46.4 °F 49% 30.15 in - NW 4.6 mph - N/A   Clear
8:00 PM 62.6 °F - 46.4 °F 55% 30.18 in - North 3.5 mph - N/A   Clear
9:00 PM 62.6 °F - 46.4 °F 55% 30.18 in - NNE 3.5 mph - N/A   Clear
10:00 PM 58 °F - 45 °F 51% 30.20 in 6 mi Calm Calm - -  
10:00 PM 57.2 °F - 44.6 °F 63% 30.18 in - Calm Calm - N/A   Clear
11:00 PM 55.4 °F - 42.8 °F 63% 30.18 in - Calm Calm - N/A   Clear